Location: Holkham
(52.9500°N, 0.8167°E)
Time: 21:55:56
(UTC+00:00)

ARIANE 6 FM1 Upper Stage - Pass Details

Date: 19 May 2025
Orbit: 531 x 610 km, 62.0° (Epoch: 18 June)

Event Time Altitude Azimuth Distance (km) Brightness Sun altitude
Rises 21:56:40 0° 242° (WSW) 2,668 6.1 -12.8°
Reaches altitude 10° 21:58:53 10° 247° (WSW) 1,783 5.3 -13.0°
Maximum altitude 22:02:49 56° 327° (NNW) 642 3.3 -13.2°
Drops below altitude 10° 22:06:50 10° 46° (NE) 1,814 5.5 -13.5°
Sets 22:09:06 0° 51° (NE) 2,720 6.4 -13.7°
